Time,TemperatureF,DewpointF,PressureIn,WindDirection,WindDirectionDegrees,WindSpeedMPH,WindSpeedGustMPH,Humidity,HourlyPrecipIn,Conditions,Clouds,dailyrainin,SoftwareType,DateUTC
2013-05-28 00:01:00,53.0,50.0,30.00,SSW,204,0.0,1.0,91,0.00,,,0.65,,2013-05-28 07:01:00,
2013-05-28 00:11:00,53.0,50.0,30.00,SSW,204,0.0,1.0,91,0.00,,,0.65,,2013-05-28 07:11:00,
2013-05-28 00:21:00,53.0,50.0,30.00,SSW,204,0.0,1.0,91,0.00,,,0.65,,2013-05-28 07:21:00,
2013-05-28 00:32:00,53.0,51.0,30.00,SSW,205,0.0,1.0,92,0.00,,,0.65,,2013-05-28 07:32:00,
2013-05-28 00:42:00,53.0,51.0,30.00,SSW,205,0.0,1.0,92,0.00,,,0.65,,2013-05-28 07:42:00,
2013-05-28 00:52:00,53.0,51.0,30.00,SSW,205,0.0,1.0,92,0.00,,,0.65,,2013-05-28 07:52:00,
2013-05-28 01:01:00,53.0,51.0,30.01,SSW,205,0.0,0.0,93,0.01,,,0.66,,2013-05-28 08:01:00,
2013-05-28 01:11:00,53.0,51.0,30.01,SSW,205,0.0,0.0,93,0.01,,,0.66,,2013-05-28 08:11:00,
2013-05-28 01:21:00,53.0,51.0,30.01,SSW,205,0.0,0.0,93,0.01,,,0.66,,2013-05-28 08:21:00,
2013-05-28 01:32:00,53.0,51.0,30.01,ESE,113,1.0,3.0,93,0.01,,,0.66,,2013-05-28 08:32:00,
2013-05-28 01:42:00,53.0,51.0,30.01,ESE,113,1.0,3.0,93,0.01,,,0.66,,2013-05-28 08:42:00,
2013-05-28 01:52:00,53.0,51.0,30.01,ESE,113,1.0,3.0,93,0.01,,,0.66,,2013-05-28 08:52:00,
2013-05-28 02:01:00,53.0,51.0,30.01,ESE,117,1.0,2.0,93,0.01,,,0.62,,2013-05-28 09:01:00,
2013-05-28 02:11:00,53.0,51.0,30.01,ESE,117,1.0,2.0,93,0.01,,,0.62,,2013-05-28 09:11:00,
2013-05-28 02:21:00,53.0,51.0,30.01,ESE,117,1.0,2.0,93,0.01,,,0.62,,2013-05-28 09:21:00,
2013-05-28 02:33:00,53.0,51.0,30.01,ESE,117,0.0,2.0,93,0.01,,,0.62,,2013-05-28 09:33:00,
2013-05-28 02:43:00,53.0,51.0,30.01,ESE,117,0.0,2.0,93,0.01,,,0.62,,2013-05-28 09:43:00,
2013-05-28 02:53:00,53.0,51.0,30.01,ESE,117,0.0,2.0,93,0.01,,,0.62,,2013-05-28 09:53:00,
2013-05-28 03:02:00,53.0,51.0,30.01,ESE,117,0.0,1.0,94,0.02,,,0.57,,2013-05-28 10:02:00,
2013-05-28 03:12:00,53.0,51.0,30.01,ESE,117,0.0,1.0,94,0.02,,,0.57,,2013-05-28 10:12:00,
2013-05-28 03:22:00,53.0,51.0,30.01,ESE,117,0.0,1.0,94,0.02,,,0.57,,2013-05-28 10:22:00,
2013-05-28 03:32:00,53.0,51.0,30.01,ESE,118,0.0,2.0,94,0.01,,,0.57,,2013-05-28 10:32:00,
2013-05-28 03:43:00,53.0,51.0,30.01,ESE,118,0.0,2.0,94,0.01,,,0.57,,2013-05-28 10:43:00,
2013-05-28 03:53:00,53.0,51.0,30.01,ESE,118,0.0,2.0,94,0.01,,,0.57,,2013-05-28 10:53:00,
2013-05-28 04:02:00,53.0,51.0,30.01,ESE,118,0.0,1.0,94,0.01,,,0.50,,2013-05-28 11:02:00,
2013-05-28 04:11:00,53.0,51.0,30.01,ESE,118,0.0,1.0,94,0.01,,,0.50,,2013-05-28 11:11:00,
2013-05-28 04:22:00,53.0,51.0,30.01,ESE,118,0.0,1.0,94,0.01,,,0.50,,2013-05-28 11:22:00,
2013-05-28 04:32:00,53.0,51.0,30.01,ESE,118,0.0,3.0,94,0.01,,,0.50,,2013-05-28 11:32:00,
2013-05-28 04:42:00,53.0,51.0,30.01,ESE,118,0.0,3.0,94,0.01,,,0.50,,2013-05-28 11:42:00,
2013-05-28 04:52:00,53.0,51.0,30.01,ESE,118,0.0,3.0,94,0.01,,,0.50,,2013-05-28 11:52:00,
2013-05-28 05:01:00,53.0,51.0,30.01,ESE,118,0.0,0.0,94,0.05,,,0.46,,2013-05-28 12:01:00,
2013-05-28 05:11:00,53.0,51.0,30.01,ESE,118,0.0,0.0,94,0.05,,,0.46,,2013-05-28 12:11:00,
2013-05-28 05:21:00,53.0,51.0,30.01,ESE,118,0.0,0.0,94,0.05,,,0.46,,2013-05-28 12:21:00,
2013-05-28 05:31:00,53.0,51.0,30.01,ESE,118,0.0,1.0,94,0.06,,,0.48,,2013-05-28 12:31:00,
2013-05-28 05:42:00,53.0,51.0,30.01,ESE,118,0.0,1.0,94,0.06,,,0.48,,2013-05-28 12:42:00,
2013-05-28 05:52:00,53.0,51.0,30.01,ESE,118,0.0,1.0,94,0.06,,,0.48,,2013-05-28 12:52:00,
2013-05-28 06:01:00,53.0,51.0,30.02,ESE,118,0.0,2.0,94,0.03,,,0.43,,2013-05-28 13:01:00,
2013-05-28 06:11:00,53.0,51.0,30.02,ESE,118,0.0,2.0,94,0.03,,,0.43,,2013-05-28 13:11:00,
2013-05-28 06:21:00,53.0,51.0,30.02,ESE,118,0.0,2.0,94,0.03,,,0.43,,2013-05-28 13:21:00,
2013-05-28 06:32:00,53.0,51.0,30.03,ESE,118,0.0,2.0,93,0.03,,,0.45,,2013-05-28 13:32:00,
2013-05-28 06:42:00,53.0,51.0,30.03,ESE,118,0.0,2.0,93,0.03,,,0.45,,2013-05-28 13:42:00,
2013-05-28 06:52:00,53.0,51.0,30.03,ESE,118,0.0,2.0,93,0.03,,,0.45,,2013-05-28 13:52:00,
2013-05-28 07:01:00,53.0,51.0,30.03,ESE,110,0.0,1.0,94,0.02,,,0.40,,2013-05-28 14:01:00,
2013-05-28 07:11:00,53.0,51.0,30.03,ESE,110,0.0,1.0,94,0.02,,,0.40,,2013-05-28 14:11:00,
2013-05-28 07:21:00,53.0,51.0,30.03,ESE,110,0.0,1.0,94,0.02,,,0.40,,2013-05-28 14:21:00,
2013-05-28 07:32:00,53.0,51.0,30.04,SE,130,1.0,4.0,93,0.01,,,0.40,,2013-05-28 14:32:00,
2013-05-28 07:42:00,53.0,51.0,30.04,SE,130,1.0,4.0,93,0.01,,,0.40,,2013-05-28 14:42:00,
2013-05-28 07:52:00,53.0,51.0,30.04,SE,130,1.0,4.0,93,0.01,,,0.40,,2013-05-28 14:52:00,
2013-05-28 08:01:00,53.0,51.0,30.04,SE,130,1.0,4.0,93,0.01,,,0.40,,2013-05-28 15:01:00,
2013-05-28 08:21:00,53.0,51.0,30.04,SSE,150,0.0,2.0,93,0.00,,,0.33,,2013-05-28 15:21:00,
2013-05-28 08:32:00,53.0,51.0,30.05,SSE,150,0.0,2.0,94,0.01,,,0.34,,2013-05-28 15:32:00,
2013-05-28 08:43:00,53.0,51.0,30.05,SSE,150,0.0,2.0,94,0.01,,,0.34,,2013-05-28 15:43:00,
2013-05-28 08:53:00,53.0,51.0,30.05,SSE,150,0.0,2.0,94,0.01,,,0.34,,2013-05-28 15:53:00,
2013-05-28 09:03:00,54.0,52.0,30.05,ESE,121,1.0,6.0,93,0.02,,,0.33,,2013-05-28 16:03:00,
2013-05-28 09:12:00,54.0,52.0,30.05,ESE,121,1.0,6.0,93,0.02,,,0.33,,2013-05-28 16:12:00,
2013-05-28 09:22:00,54.0,52.0,30.05,ESE,121,1.0,6.0,93,0.02,,,0.33,,2013-05-28 16:22:00,
2013-05-28 09:33:00,54.0,52.0,30.05,SE,140,0.0,4.0,94,0.01,,,0.33,,2013-05-28 16:33:00,
2013-05-28 09:42:00,54.0,52.0,30.05,SE,140,0.0,4.0,94,0.01,,,0.33,,2013-05-28 16:42:00,
2013-05-28 09:52:00,54.0,52.0,30.05,SE,140,0.0,4.0,94,0.01,,,0.33,,2013-05-28 16:52:00,
2013-05-28 10:02:00,56.0,54.0,30.06,SE,138,0.0,3.0,93,0.01,,,0.28,,2013-05-28 17:02:00,
2013-05-28 10:12:00,56.0,54.0,30.06,SE,138,0.0,3.0,93,0.01,,,0.28,,2013-05-28 17:12:00,
2013-05-28 10:22:00,56.0,54.0,30.06,SE,138,0.0,3.0,93,0.01,,,0.28,,2013-05-28 17:22:00,
2013-05-28 10:32:00,57.0,54.0,30.06,South,179,0.0,2.0,90,0.00,,,0.28,,2013-05-28 17:32:00,
2013-05-28 10:42:00,57.0,54.0,30.06,South,179,0.0,2.0,90,0.00,,,0.28,,2013-05-28 17:42:00,
2013-05-28 10:52:00,57.0,54.0,30.06,South,179,0.0,2.0,90,0.00,,,0.28,,2013-05-28 17:52:00,
2013-05-28 11:01:00,58.0,54.0,30.06,SSE,160,2.0,4.0,87,0.00,,,0.24,,2013-05-28 18:01:00,
2013-05-28 11:11:00,58.0,54.0,30.06,SSE,160,2.0,4.0,87,0.00,,,0.24,,2013-05-28 18:11:00,
2013-05-28 11:21:00,58.0,54.0,30.06,SSE,160,2.0,4.0,87,0.00,,,0.24,,2013-05-28 18:21:00,
2013-05-28 11:32:00,59.0,54.0,30.07,SSW,193,0.0,5.0,83,0.00,,,0.24,,2013-05-28 18:32:00,
2013-05-28 11:42:00,59.0,54.0,30.07,SSW,193,0.0,5.0,83,0.00,,,0.24,,2013-05-28 18:42:00,
2013-05-28 11:52:00,59.0,54.0,30.07,SSW,193,0.0,5.0,83,0.00,,,0.24,,2013-05-28 18:52:00,
2013-05-28 12:01:00,60.0,53.0,30.07,WSW,244,2.0,8.0,79,0.00,,,0.24,,2013-05-28 19:01:00,
2013-05-28 12:11:00,60.0,53.0,30.07,WSW,244,2.0,8.0,79,0.00,,,0.24,,2013-05-28 19:11:00,
2013-05-28 12:21:00,60.0,53.0,30.07,WSW,244,2.0,8.0,79,0.00,,,0.24,,2013-05-28 19:21:00,
2013-05-28 12:31:00,62.0,54.0,30.08,SSW,200,4.0,8.0,76,0.00,,,0.24,,2013-05-28 19:31:00,
2013-05-28 12:42:00,62.0,54.0,30.08,SSW,200,4.0,8.0,76,0.00,,,0.24,,2013-05-28 19:42:00,
2013-05-28 12:52:00,62.0,54.0,30.08,SSW,200,4.0,8.0,76,0.00,,,0.24,,2013-05-28 19:52:00,
2013-05-28 13:01:00,62.0,53.0,30.08,SW,221,4.0,9.0,73,0.00,,,0.24,,2013-05-28 20:01:00,
2013-05-28 13:11:00,62.0,53.0,30.08,SW,221,4.0,9.0,73,0.00,,,0.24,,2013-05-28 20:11:00,
2013-05-28 13:22:00,62.0,53.0,30.08,SW,221,4.0,9.0,73,0.00,,,0.24,,2013-05-28 20:22:00,
2013-05-28 13:32:00,63.0,54.0,30.08,SW,214,1.0,6.0,73,0.00,,,0.24,,2013-05-28 20:32:00,
2013-05-28 13:42:00,63.0,54.0,30.08,SW,214,1.0,6.0,73,0.00,,,0.24,,2013-05-28 20:42:00,
2013-05-28 13:52:00,63.0,54.0,30.08,SW,214,1.0,6.0,73,0.00,,,0.24,,2013-05-28 20:52:00,
2013-05-28 14:01:00,66.0,54.0,30.07,WSW,238,1.0,5.0,66,0.00,,,0.24,,2013-05-28 21:01:00,
2013-05-28 14:11:00,66.0,54.0,30.07,WSW,238,1.0,5.0,66,0.00,,,0.24,,2013-05-28 21:11:00,
2013-05-28 14:21:00,66.0,54.0,30.07,WSW,238,1.0,5.0,66,0.00,,,0.24,,2013-05-28 21:21:00,
2013-05-28 14:33:00,66.0,54.0,30.07,WSW,253,3.0,4.0,65,0.00,,,0.24,,2013-05-28 21:33:00,
2013-05-28 14:43:00,66.0,54.0,30.07,WSW,253,3.0,4.0,65,0.00,,,0.24,,2013-05-28 21:43:00,
2013-05-28 14:53:00,66.0,54.0,30.07,WSW,253,3.0,4.0,65,0.00,,,0.24,,2013-05-28 21:53:00,
2013-05-28 15:02:00,66.0,54.0,30.06,WSW,253,6.0,7.0,65,0.00,,,0.24,,2013-05-28 22:02:00,
2013-05-28 15:12:00,66.0,54.0,30.06,WSW,253,6.0,7.0,65,0.00,,,0.24,,2013-05-28 22:12:00,
2013-05-28 15:22:00,66.0,54.0,30.06,WSW,253,6.0,7.0,65,0.00,,,0.24,,2013-05-28 22:22:00,
2013-05-28 15:32:00,66.0,53.0,30.07,SW,235,2.0,6.0,63,0.00,,,0.24,,2013-05-28 22:32:00,
2013-05-28 15:42:00,66.0,53.0,30.07,SW,235,2.0,6.0,63,0.00,,,0.24,,2013-05-28 22:42:00,
2013-05-28 15:52:00,66.0,53.0,30.07,SW,235,2.0,6.0,63,0.00,,,0.24,,2013-05-28 22:52:00,
2013-05-28 16:02:00,69.0,53.0,30.06,North,5,2.0,10.0,57,0.00,,,0.23,,2013-05-28 23:02:00,
2013-05-28 16:11:00,69.0,53.0,30.06,North,5,2.0,10.0,57,0.00,,,0.23,,2013-05-28 23:11:00,
2013-05-28 16:21:00,69.0,53.0,30.06,North,5,2.0,10.0,57,0.00,,,0.23,,2013-05-28 23:21:00,
2013-05-28 16:32:00,69.0,53.0,30.04,ESE,110,1.0,6.0,57,0.00,,,0.23,,2013-05-28 23:32:00,
2013-05-28 16:42:00,69.0,53.0,30.04,ESE,110,1.0,6.0,57,0.00,,,0.23,,2013-05-28 23:42:00,
2013-05-28 16:52:00,69.0,53.0,30.04,ESE,110,1.0,6.0,57,0.00,,,0.23,,2013-05-28 23:52:00,
2013-05-28 17:02:00,69.0,54.0,30.03,South,189,2.0,5.0,58,0.00,,,0.20,,2013-05-29 00:02:00,
2013-05-28 17:11:00,69.0,54.0,30.03,South,189,2.0,5.0,58,0.00,,,0.20,,2013-05-29 00:11:00,
2013-05-28 17:21:00,69.0,54.0,30.03,South,189,2.0,5.0,58,0.00,,,0.20,,2013-05-29 00:21:00,
2013-05-28 17:32:00,68.0,53.0,30.03,SW,230,3.0,9.0,58,0.00,,,0.20,,2013-05-29 00:32:00,
2013-05-28 17:42:00,68.0,53.0,30.03,SW,230,3.0,9.0,58,0.00,,,0.20,,2013-05-29 00:42:00,
2013-05-28 17:52:00,68.0,53.0,30.03,SW,230,3.0,9.0,58,0.00,,,0.20,,2013-05-29 00:52:00,
2013-05-28 18:01:00,66.0,52.0,30.02,SSW,213,1.0,6.0,61,0.00,,,0.18,,2013-05-29 01:01:00,
2013-05-28 18:11:00,66.0,52.0,30.02,SSW,213,1.0,6.0,61,0.00,,,0.18,,2013-05-29 01:11:00,
2013-05-28 18:22:00,66.0,52.0,30.02,SSW,213,1.0,6.0,61,0.00,,,0.18,,2013-05-29 01:22:00,
2013-05-28 18:32:00,64.0,52.0,30.01,SE,134,1.0,4.0,64,0.00,,,0.18,,2013-05-29 01:32:00,
2013-05-28 18:42:00,64.0,52.0,30.01,SE,134,1.0,4.0,64,0.00,,,0.18,,2013-05-29 01:42:00,
2013-05-28 18:52:00,64.0,52.0,30.01,SE,134,1.0,4.0,64,0.00,,,0.18,,2013-05-29 01:52:00,
2013-05-28 19:02:00,63.0,52.0,29.98,South,181,4.0,4.0,67,0.00,,,0.17,,2013-05-29 02:02:00,
2013-05-28 19:12:00,63.0,52.0,29.98,South,181,4.0,4.0,67,0.00,,,0.17,,2013-05-29 02:12:00,
2013-05-28 19:21:00,63.0,52.0,29.98,South,181,4.0,4.0,67,0.00,,,0.17,,2013-05-29 02:21:00,
2013-05-28 19:31:00,61.0,52.0,29.96,SW,224,0.0,7.0,71,0.00,,,0.17,,2013-05-29 02:31:00,
2013-05-28 19:42:00,61.0,52.0,29.96,SW,224,0.0,7.0,71,0.00,,,0.17,,2013-05-29 02:42:00,
2013-05-28 19:52:00,61.0,52.0,29.96,SW,224,0.0,7.0,71,0.00,,,0.17,,2013-05-29 02:52:00,
2013-05-28 20:01:00,60.0,52.0,29.95,SW,218,1.0,8.0,76,0.00,,,0.16,,2013-05-29 03:01:00,
2013-05-28 20:11:00,60.0,52.0,29.95,SW,218,1.0,8.0,76,0.00,,,0.16,,2013-05-29 03:11:00,
2013-05-28 20:21:00,60.0,52.0,29.95,SW,218,1.0,8.0,76,0.00,,,0.16,,2013-05-29 03:21:00,
2013-05-28 20:33:00,59.0,52.0,29.93,SW,215,0.0,0.0,79,0.01,,,0.17,,2013-05-29 03:33:00,
2013-05-28 20:43:00,59.0,52.0,29.93,SW,215,0.0,0.0,79,0.01,,,0.17,,2013-05-29 03:43:00,
2013-05-28 20:53:00,59.0,52.0,29.93,SW,215,0.0,0.0,79,0.01,,,0.17,,2013-05-29 03:53:00,
2013-05-28 21:02:00,57.0,52.0,29.90,SSW,205,0.0,2.0,84,0.02,,,0.17,,2013-05-29 04:02:00,
2013-05-28 21:12:00,57.0,52.0,29.90,SSW,205,0.0,2.0,84,0.02,,,0.17,,2013-05-29 04:12:00,
2013-05-28 21:23:00,57.0,52.0,29.90,SSW,205,0.0,2.0,84,0.02,,,0.17,,2013-05-29 04:23:00,
2013-05-28 21:33:00,57.0,53.0,29.89,SSW,205,0.0,0.0,86,0.03,,,0.18,,2013-05-29 04:33:00,
2013-05-28 21:42:00,57.0,53.0,29.89,SSW,205,0.0,0.0,86,0.03,,,0.18,,2013-05-29 04:42:00,
2013-05-28 21:52:00,57.0,53.0,29.89,SSW,205,0.0,0.0,86,0.03,,,0.18,,2013-05-29 04:52:00,
2013-05-28 22:02:00,56.0,52.0,29.90,SSW,205,0.0,0.0,87,0.01,,,0.18,,2013-05-29 05:02:00,
2013-05-28 22:12:00,56.0,52.0,29.90,SSW,205,0.0,0.0,87,0.01,,,0.18,,2013-05-29 05:12:00,
2013-05-28 22:22:00,56.0,52.0,29.90,SSW,205,0.0,0.0,87,0.01,,,0.18,,2013-05-29 05:22:00,
2013-05-28 22:32:00,56.0,53.0,29.88,SSW,205,1.0,1.0,89,0.01,,,0.19,,2013-05-29 05:32:00,
2013-05-28 22:42:00,56.0,53.0,29.88,SSW,205,1.0,1.0,89,0.01,,,0.19,,2013-05-29 05:42:00,
2013-05-28 22:52:00,56.0,53.0,29.88,SSW,205,1.0,1.0,89,0.01,,,0.19,,2013-05-29 05:52:00,
2013-05-28 23:01:00,56.0,53.0,29.88,SSW,205,0.0,0.0,89,0.02,,,0.20,,2013-05-29 06:01:00,
2013-05-28 23:11:00,56.0,53.0,29.88,SSW,205,0.0,0.0,89,0.02,,,0.20,,2013-05-29 06:11:00,
2013-05-28 23:21:00,56.0,53.0,29.88,SSW,205,0.0,0.0,89,0.02,,,0.20,,2013-05-29 06:21:00,
2013-05-28 23:31:00,55.0,52.0,29.88,SSW,205,0.0,0.0,90,0.02,,,0.21,,2013-05-29 06:31:00,
2013-05-28 23:42:00,55.0,52.0,29.88,SSW,205,0.0,0.0,90,0.02,,,0.21,,2013-05-29 06:42:00,
2013-05-28 23:52:00,55.0,52.0,29.88,SSW,205,0.0,0.0,90,0.02,,,0.21,,2013-05-29 06:52:00,